TimeMST,TemperatureF,Dew PointF,Humidity,Sea Level PressureIn,VisibilityMPH,Wind Direction,Wind SpeedMPH,Gust SpeedMPH,PrecipitationIn,Events,Conditions,WindDirDegrees,DateUTC
12:52 AM,12.9,5.0,71,30.22,10.0,WNW,4.6,-,N/A,,Clear,300,2013-01-04 07:52:00
1:52 AM,16.0,5.0,62,30.21,10.0,NW,5.8,-,N/A,,Clear,320,2013-01-04 08:52:00
2:52 AM,21.0,7.0,55,30.19,10.0,WNW,8.1,-,N/A,,Clear,300,2013-01-04 09:52:00
3:52 AM,23.0,6.1,48,30.19,10.0,WNW,5.8,-,N/A,,Clear,290,2013-01-04 10:52:00
4:52 AM,14.0,3.0,62,30.22,10.0,Calm,Calm,-,N/A,,Clear,0,2013-01-04 11:52:00
5:52 AM,12.9,1.9,62,30.22,10.0,WNW,3.5,-,N/A,,Clear,300,2013-01-04 12:52:00
6:52 AM,14.0,1.9,59,30.23,10.0,Calm,Calm,-,N/A,,Clear,0,2013-01-04 13:52:00
7:52 AM,14.0,3.0,62,30.23,10.0,Calm,Calm,-,N/A,,Clear,0,2013-01-04 14:52:00
8:52 AM,26.1,12.0,55,30.22,10.0,Calm,Calm,-,N/A,,Clear,0,2013-01-04 15:52:00
9:52 AM,23.0,12.9,65,30.22,10.0,Calm,Calm,-,N/A,,Clear,0,2013-01-04 16:52:00
10:52 AM,28.9,10.9,47,30.20,10.0,Calm,Calm,-,N/A,,Clear,0,2013-01-04 17:52:00
11:52 AM,37.0,18.0,46,30.14,10.0,Calm,Calm,-,N/A,,Clear,0,2013-01-04 18:52:00
12:52 PM,36.0,21.0,55,30.13,10.0,Calm,Calm,-,N/A,,Clear,0,2013-01-04 19:52:00
1:52 PM,37.9,23.0,55,30.10,10.0,Calm,Calm,-,N/A,,Clear,0,2013-01-04 20:52:00
2:52 PM,39.0,21.9,50,30.09,10.0,NE,3.5,-,N/A,,Clear,40,2013-01-04 21:52:00
3:52 PM,34.0,21.9,61,30.11,10.0,North,5.8,-,N/A,,Clear,350,2013-01-04 22:52:00
4:52 PM,28.0,19.9,72,30.16,10.0,North,12.7,-,N/A,,Clear,350,2013-01-04 23:52:00
5:52 PM,28.0,10.9,49,30.17,10.0,North,6.9,-,N/A,,Clear,350,2013-01-05 00:52:00
6:52 PM,25.0,12.0,58,30.17,10.0,NNW,5.8,-,N/A,,Clear,340,2013-01-05 01:52:00
7:52 PM,26.1,12.9,58,30.17,10.0,NNW,10.4,-,N/A,,Clear,340,2013-01-05 02:52:00
8:52 PM,23.0,10.9,60,30.14,10.0,NW,9.2,-,N/A,,Clear,310,2013-01-05 03:52:00
9:52 PM,24.1,10.0,55,30.14,10.0,WNW,6.9,-,N/A,,Clear,300,2013-01-05 04:52:00
10:52 PM,25.0,10.9,55,30.13,10.0,WNW,9.2,-,N/A,,Clear,300,2013-01-05 05:52:00
11:52 PM,23.0,9.0,55,30.11,10.0,WNW,6.9,-,N/A,,Clear,300,2013-01-05 06:52:00